Location: Baller�as
(41.9020°N, 0.1554°W)
Time: 11:45:51
(UTC+00:00)

SPOT 5 - Pass Details

Date: 10 August 2020
Orbit: 624 x 814 km, 98.3° (Epoch: 22 September)

Event Time Altitude Azimuth Distance (km) Brightness Sun altitude
Exits shadow 20:33:37 15° 82° (E) 1,702 4.4 -14.8°
Maximum altitude 20:34:47 16° 63° (ENE) 1,628 4.5 -15.0°
Drops below altitude 10° 20:37:28 10° 25° (NNE) 2,015 5.3 -15.4°
Sets 20:40:23 0° 4° (N) 2,945 6.5 -15.8°
